Regional Weather Roundup
Issued by NWS Wakefield, VA

Home | Current Version | Previous Version | Text Only | Print | Product List | Glossary Off
Versions: 1 2 3 4 5 6 7 8 9 10 11 12 13 14 15 16 17 18 19 20 21 22 23 24 25 26 27 28 29 30 31 32 33 34 35 36 37 38 39 40 41 42 43 44 45 46 47 48 49 50

000
ASUS41 KAKQ 270814
RWRAKQ

REGIONAL WEATHER ROUNDUP
NATIONAL WEATHER SERVICE WAKEFIELD VA
400 AM EDT MON APR 27 2015

Note: "fair" indicates few or no clouds below 12,000 feet with no
significant weather and/or obstructions to visibility. * = Denotes
station may not report precipitation (e.g., rain,snow,etc.),
thunder or fog.

VAZ042-051-052>054-056-270900-
NORTHERN VIRGINIA

CITY           SKY/WX    TMP DP  RH WIND       PRES   REMARKS
WASH NATIONAL  PTCLDY    50  33  52 N7        29.75S
DULLES         PTCLDY    41  33  73 N3        29.76S
FORT BELVOIR   CLEAR     46  31  56 NW2       29.75R
QUANTICO       CLEAR     49  32  52 N10       29.75R
FREDERICKSBRG* CLEAR     42  42 100 NW3       29.74R
STAFFORD*      CLEAR     38  33  82 NW6       29.79R
WARRENTON      CLEAR     45  35  69 CALM      29.75R
CULPEPER*      CLEAR     43  36  75 N3        29.76R
MANASSAS*      CLEAR     45  34  65 CALM      29.76S
LEESBURG*      PTCLDY    43  37  81 CALM      29.77S
WINCHESTER     CLEAR     43  28  56 NW6       29.77S
FRONT ROYAL*   FAIR      43  32  65 CALM      29.76S
LURAY*         FAIR      43  36  75 CALM      29.77R
$$

VAZ048-049-060>072-079>083-270900-
CENTRAL AND SOUTH CENTRAL VIRGINIA

CITY           SKY/WX    TMP DP  RH WIND       PRES   REMARKS
RICHMOND       CLEAR     42  39  89 SW3       29.72S
CHESTERFIELD*  FAIR      43  30  61 NW3       29.73S
PETERSBURG*    CLEAR     37  37  97 CALM      29.73F
HANOVER        CLEAR     41  39  93 CALM      29.73S
TAPPAHANNOCK*  CLEAR     37  34  89 CALM      29.73R
QUINTON*       FAIR      39  38  97 MISG      29.72S
CHARLOTTSVILLE CLEAR     42  36  79 E5        29.75R
GORDONSVILLE*  FAIR      48  32  53 N8        29.75R
ORANGE*        CLEAR     46  34  61 N8        29.77R
LOUISA*        CLEAR     46  37  71 N7        29.73R
BUMPASS*       FAIR      44  39  83 CALM      29.73R
FARMVILLE*     CLEAR     39  39 100 W3        29.74R
CREWE*         FAIR      43  42  95 W5        29.73S
FORT PICKETT*  FAIR      38  38  98 CALM      29.74S
CHASE CITY*    FAIR      42  42 100 CALM      29.76R
CLARKSVILLE*   FAIR      43  43 100 CALM      29.75S
SOUTH HILL*    CLEAR     38  38  99 CALM      29.81R
LAWRENCEVILLE*   N/A     39  39 100 CALM      29.75R
EMPORIA*       CLEAR     37  37 100 CALM      29.76S FOG
$$

VAZ088>098-270900-
SOUTHEAST VIRGINIA

CITY           SKY/WX    TMP DP  RH WIND       PRES   REMARKS
NORFOLK        CLEAR     48  41  76 W5        29.72F
VIRGINIA BEACH CLEAR     42  37  82 SW3       29.72S
NORFOLK NAVAL  CLEAR     50  41  71 W6        29.74S
WEST POINT*    CLEAR     40  38  92 E3        29.74R
SALUDA*        FAIR      44  40  88 SW3       29.72S
NEWPORT NEWS   CLEAR     44  39  82 CALM      29.73S
LANGLEY AFB    CLEAR     44  41  89 SW1       29.72S
FORT EUSTIS    CLEAR     44  44 100 W1        29.71S
WILLIAMSBURG*  CLEAR     45  43  93 CALM      29.74R
HR EXEC AP*    FAIR      36  32  87 CALM      29.75S
FRANKLIN*      CLEAR     38  38  98 CALM      29.75S
WAKEFIELD      CLEAR     40  37  89 CALM      29.73S
$$

VAZ020-022-025-037-045-270900-
WEST CENTRAL AND SOUTHWEST VIRGINIA

CITY           SKY/WX    TMP DP  RH WIND       PRES   REMARKS
STAUNTON*      CLEAR     35  32  90 CALM      29.79R
WAYNESBORO*    FAIR      36  36  98 CALM      29.76S
HOT SPRINGS VA CLEAR     37  29  74 N7        29.74S
LYNCHBURG      CLEAR     36  36 100 N3        29.77R FOG
DANVILLE       CLEAR     41  38  89 SW3       29.76S
SOUTH BOSTON*  FAIR      39  38  94 CALM      29.76S VSB 1/2
MARTINSVILLE   FOG       38  38 100 CALM      29.80S VSB 1/2
ROANOKE        CLEAR     43  38  82 NW6       29.79R
BLACKSBURG     CLEAR     36  35  98 NW3       29.82S
DUBLIN*        CLEAR     42  40  92 CALM      29.81S
MARION*        FOG       40  38  95 SW7       29.83S VSB 1/4
HILLSVILLE*    CLEAR     42  38  84 NW8       29.78S
RICHLANDS*     FAIR      40  36  85 W3        29.82S
WISE*          CLEAR     41  32  70 N6        29.84S
ABINGDON*      MOCLDY    45  41  84 CALM      29.82S
$$

MDZ021>025-VAZ099-100-270900-
SOUTHERN MARYLAND AND THE DELMARVA PENINSULA

CITY           SKY/WX    TMP DP  RH WIND       PRES   REMARKS
PATUXENT RIVER CLEAR     45  39  79 NW7       29.71F
BAY BRIDGE APT   N/A    N/A N/A N/A N3        29.74S
LEONARDTOWN    CLEAR     45  36  70 N3        29.73S
DOVER          CLOUDY    42  38  84 NW5       29.68S
GEORGETOWN     CLEAR     37  34  89 CALM      29.72S
EASTON         CLEAR     43  38  82 NE3       29.76S
CAMBRIDGE      CLEAR     43  39  87 CALM      29.72S
SALISBURY      CLEAR     37  35  92 CALM      29.71S
OCEAN CITY     CLEAR     37  35  92 NW5       29.71S
WALLOPS ISLAND CLEAR     44  38  79 W5        29.71S
ACCOMACK*      CLEAR     39  34  81 SW5       29.71S
$$

NCZ012>017-030>032-270900-
NORTH CENTRAL AND EASTERN NORTH CAROLINA

CITY           SKY/WX    TMP DP  RH WIND       PRES   REMARKS
ROANOKE RAPIDS FAIR      41  41 100 CALM      29.75S
RALEIGH        PTCLDY    41  40  96 CALM      29.77S
ELIZABETH CITY CLEAR     40  39  97 W5        29.74R
AHOSKIE*       CLEAR     41  40  98 CALM      29.75S FOG
EDENTON*       CLEAR     41  40  97 CALM      29.75S
CURRITUCK*     CLEAR     43  41  93 CALM      29.74S
KILL DEVIL HLS CLEAR     48  42  80 NW3       29.71S
MANTEO         CLEAR     40  38  92 CALM      29.72S
CAPE HATTERAS  PTCLDY    52  40  63 NE8       29.71R
TARBORO*         N/A     41  40  97 CALM      29.76S FOG
GOLDSBORO      CLOUDY    48  47  98 CALM      29.74S
WASHINGTON       N/A     45  44  97 CALM      29.75R
GREENVILLE     CLEAR     45  45 100 CALM      29.78S FOG
NEW BERN       MOCLDY    50  46  86 NW5       29.76F
WILMINGTON     CLOUDY    50  48  93 N6        29.73F
$$

VAZ048-270900-
ELSEWHERE

CITY           SKY/WX    TMP DP  RH WIND       PRES   REMARKS
HARRISBURG PA  MOCLDY    45  35  68 CALM      29.74S
BALTIMORE      PTCLDY    39  31  72 NW5       29.74S
ANNAPOLIS      CLEAR     50  36  58 N6        29.73S
ANDREWS AFB    CLEAR     41  31  67 N8        29.73R
PHILADELPHIA   PTCLDY    49  29  46 NW6       29.73F
HENDERSON NC   CLEAR     40  38  95 CALM      29.75S
GREENSBORO     CLEAR     43  42  97 SW3       29.76F
ROCKY MOUNT    CLEAR     44  43  96 CALM      29.76S
$$

VAZ100-270900-
MARINE

STATION/POSITION TIME  TEMP    WIND        PRES    WAVE   SWELL
                       AIR SEA DIR/SP/G            HT/PER HT/PER
                 (UTC) (F)     (DEG/KT/KT) (MB)    (FT/S) (FT/S)
BRANDYWINE LGT   0700          330/  6/  7   N/A
CAPE MAY NJ      0700   50 55  320/  3/  6 1005.8F
LEWES DE         0700   49 51  330/ 10/ 11 1006.2F
15NM E FENWICK I 0750   48 47              1005.7R   2/ 7
OCEAN-CITY-INLET 0700          310/  3/  4   N/A
WACHAPREAGUE VA  0700   45 56  270/  4/  4 1006.1F
THOMAS POINT MD  0800   52 53  360/  9/ 10 1007.3R
GOOSES REEF MD   0800   52 53   50/ 14/ 16   N/A
COVE POINT MD    0700   50     340/  6/  7 1006.8R
SOLOMONS ISLAND  0700      55                N/A
BISHOPS HEAD MD  0700   53 57  210/  8/  9 1005.4F
PINEY POINT MD   0700          300/  6/  7   N/A
CAMBRIDGE MD     0700   49 58   40/  5/  8 1006.2R
LEWISETTA VA     0700   48 57              1005.5F
RAPPAHANNOCK LGT 0700          190/  7/  7 1006.6F
YORK RVR RNG VA  0700   53     260/  9/ 10 1005.8F
YORKTOWN VA      0700   50 59  230/  6/  8 1006.1F
JAMESTOWN VA     0800   48 62  250/  4/  4 1005.7R
DOMINION TERM VA 0700   53     270/ 10/ 11 1006.5F
KIPTOPEKE VA     0700      61  230/  7/  8   N/A
CHES BAY BRIDGE  0700          200/  6/  7   N/A
CAPE HENRY VA    0700   47     230/  6/  7 1005.2F
CHESAPEAKE LGHT  0700   50     180/  2/  2 1007.2F
WILLOUBY STN VA  0700   54     240/  7/  9 1006.9F
S CRANEY ISL VA  0700          250/  3/  3 1006.6F
CAPE HENRY BUOY  0758      51                N/A     3/ 7
OFFSHORE WE BUOY 0711      49                N/A     3/ 7   3/ 7
64NM E OF VA BCH 0750   54 55  320/ 10/ 10 1005.3F   4/ 8   3/ 8
DUCK PIER NC     0700   51 54  310/  4/  4 1005.4F
44056 DUCK FRF   0711      53                N/A     4/ 6
OREGON INLET NC  0700   47 54  330/  4/  6 1006.1F
HATTERAS NC      0700           10/ 14/ 17   N/A
DIAMOND SHLS NC  0750   60 75   20/ 19/ 23 1004.5F   6/10   3/10
CAPE LOOKOUT NC  0800   53     340/ 12/ 14 1006.1F
$$



USA.gov is the U.S. government's official web portal to all federal, state and local government web resources and services.